Total_Precipitation_Accumulation
0.02 0.02 0.06 0.06 0.06 0.10 0.10 0.12 0.19 0.26 0.22 0.28 0.41 0.54 0.78 0.95 1.19 1.40 1.43 1.36 1.42 1.63 1.92 2.21 2.58 2.93 3.14 3.30 3.40 3.72 3.95 3.71 3.25 2.84 2.37 2.18 2.12 1.92 1.68 1.53 1.41 1.50 1.45 1.64
0.02 0.04 0.04 0.03 0.03 0.07 0.09 0.11 0.19 0.24 0.20 0.25 0.41 0.69 0.87 0.96 1.00 1.12 1.24 1.16 1.20 1.46 1.51 1.61 1.79 2.12 2.25 2.45 2.75 3.11 3.36 3.21 2.69 2.47 2.29 2.16 2.10 1.94 1.89 1.74 1.65 1.46 1.44 1.54
0.01 0.03 0.03 0.02 0.03 0.05 0.09 0.10 0.13 0.18 0.19 0.29 0.43 0.95 1.06 0.95 0.87 0.79 0.94 0.99 0.96 1.10 1.23 1.29 1.27 1.44 1.77 2.27 2.43 2.37 2.61 2.81 2.55 2.45 2.38 2.28 2.20 2.00 2.06 1.98 1.83 1.47 1.32 1.35
0.01 0.02 0.01 0.02 0.03 0.03 0.08 0.08 0.08 0.10 0.15 0.42 0.54 1.00 1.10 0.96 0.95 0.77 0.75 0.79 0.73 0.68 0.83 1.00 1.00 1.11 1.32 1.61 1.87 2.09 2.33 2.51 2.45 2.34 2.14 1.99 1.81 1.72 1.73 1.75 1.74 1.60 1.47 1.32
0.01 0.01 0.01 0.02 0.03 0.03 0.04 0.04 0.06 0.11 0.19 0.39 0.51 0.88 1.08 0.89 1.02 0.80 0.53 0.42 0.39 0.38 0.48 0.67 0.78 0.89 0.95 1.13 1.52 1.95 2.28 2.52 2.41 2.11 1.95 1.96 1.85 1.81 1.73 1.66 1.85 1.73 1.64 1.45
0.01 0.01 0.02 0.02 0.02 0.02 0.03 0.05 0.13 0.23 0.39 0.74 0.71 0.75 1.02 0.79 0.60 0.46 0.36 0.28 0.27 0.30 0.35 0.46 0.55 0.67 0.80 0.93 1.20 1.56 1.87 2.10 2.11 1.97 1.88 1.92 1.94 1.91 1.78 1.60 1.60 1.51 1.51 1.47
0.07 0.06 0.04 0.02 0.02 0.03 0.03 0.05 0.22 0.46 0.73 0.91 0.58 0.75 1.09 0.66 0.48 0.37 0.32 0.28 0.25 0.23 0.31 0.43 0.51 0.61 0.67 0.72 0.91 1.20 1.40 1.55 1.75 1.85 1.85 1.81 1.92 1.92 1.73 1.54 1.50 1.51 1.38 1.33
0.09 0.15 0.07 0.03 0.02 0.02 0.03 0.04 0.10 0.19 0.33 0.51 0.58 1.19 1.04 0.49 0.34 0.29 0.26 0.26 0.23 0.22 0.26 0.40 0.50 0.54 0.55 0.56 0.73 0.90 1.08 1.30 1.54 1.68 1.73 1.71 1.66 1.55 1.52 1.62 1.52 1.47 1.45 1.41
0.03 0.04 0.04 0.03 0.02 0.03 0.03 0.04 0.06 0.08 0.12 0.34 0.67 0.85 0.59 0.32 0.29 0.31 0.28 0.28 0.27 0.29 0.36 0.42 0.53 0.55 0.47 0.49 0.59 0.67 0.87 1.08 1.23 1.42 1.54 1.47 1.50 1.40 1.41 1.48 1.44 1.41 1.53 1.52
0.02 0.02 0.02 0.02 0.02 0.03 0.03 0.03 0.04 0.04 0.08 0.24 0.51 0.75 0.78 0.51 0.39 0.34 0.34 0.36 0.34 0.38 0.49 0.52 0.51 0.54 0.48 0.48 0.58 0.66 0.82 0.95 1.02 1.19 1.28 1.20 1.38 1.43 1.55 1.51 1.42 1.37 1.37 1.42
0.02 0.01 0.01 0.02 0.03 0.04 0.05 0.04 0.03 0.04 0.05 0.12 0.36 0.54 0.58 0.54 0.49 0.37 0.34 0.39 0.46 0.45 0.56 0.55 0.51 0.54 0.52 0.53 0.59 0.65 0.79 0.90 0.96 1.11 1.18 1.24 1.32 1.38 1.44 1.46 1.46 1.45 1.42 1.45
0.02 0.02 0.01 0.03 0.05 0.04 0.07 0.08 0.08 0.07 0.06 0.08 0.17 0.31 0.32 0.37 0.43 0.37 0.37 0.46 0.51 0.39 0.42 0.50 0.53 0.60 0.52 0.55 0.59 0.63 0.73 0.82 0.89 1.08 1.23 1.29 1.42 1.46 1.41 1.41 1.60 1.63 1.60 1.57
0.02 0.02 0.02 0.07 0.13 0.10 0.07 0.07 0.08 0.08 0.07 0.07 0.13 0.27 0.25 0.26 0.38 0.38 0.44 0.52 0.51 0.50 0.44 0.54 0.62 0.61 0.55 0.56 0.62 0.66 0.73 0.80 0.87 1.01 1.15 1.32 1.40 1.47 1.55 1.68 1.84 1.93 1.86 1.81
0.03 0.02 0.02 0.07 0.16 0.21 0.16 0.09 0.08 0.08 0.07 0.07 0.10 0.20 0.26 0.33 0.41 0.42 0.46 0.54 0.54 0.52 0.44 0.49 0.68 0.71 0.61 0.57 0.62 0.67 0.78 0.87 0.98 1.16 1.31 1.42 1.61 1.74 1.81 1.82 1.92 1.95 1.95 1.98
0.03 0.02 0.02 0.03 0.07 0.11 0.12 0.09 0.08 0.07 0.07 0.08 0.11 0.18 0.27 0.37 0.43 0.50 0.53 0.55 0.55 0.50 0.50 0.61 0.75 0.88 0.86 0.79 0.73 0.77 0.94 1.10 1.30 1.51 1.54 1.57 1.70 1.83 1.98 2.14 2.18 2.17 2.16 2.10
0.05 0.04 0.05 0.05 0.07 0.09 0.08 0.07 0.07 0.06 0.06 0.07 0.12 0.20 0.30 0.40 0.45 0.44 0.48 0.47 0.50 0.58 0.60 0.65 0.84 1.02 1.11 1.13 1.11 1.16 1.29 1.50 1.76 2.02 2.12 2.20 2.28 2.37 2.44 2.51 2.52 2.55 2.51 2.44
0.14 0.14 0.14 0.11 0.10 0.12 0.09 0.09 0.09 0.09 0.10 0.12 0.18 0.26 0.40 0.53 0.50 0.56 0.59 0.55 0.63 0.70 0.77 0.81 0.96 1.08 1.22 1.27 1.35 1.49 1.65 1.86 2.06 2.20 2.30 2.41 2.47 2.59 2.68 2.73 2.73 2.61 2.54 2.47
0.34 0.30 0.24 0.19 0.21 0.22 0.14 0.16 0.19 0.22 0.24 0.27 0.30 0.36 0.45 0.56 0.58 0.61 0.64 0.62 0.64 0.76 0.90 0.92 1.01 1.12 1.20 1.34 1.50 1.66 1.75 1.88 2.18 2.36 2.42 2.45 2.47 2.53 2.68 2.82 2.73 2.56 2.49 2.43
0.42 0.48 0.43 0.32 0.28 0.30 0.29 0.27 0.29 0.38 0.46 0.43 0.58 0.65 0.60 0.63 0.68 0.69 0.69 0.83 0.84 0.83 0.92 0.97 1.08 1.18 1.29 1.34 1.40 1.43 1.50 1.66 1.89 2.10 2.24 2.23 2.34 2.52 2.60 2.61 2.59 2.58 2.52 2.35
0.34 0.38 0.45 0.46 0.48 0.45 0.44 0.46 0.37 0.42 0.74 0.74 0.83 0.92 0.87 0.89 1.05 0.97 0.74 0.73 0.80 0.86 0.92 1.03 1.16 1.23 1.24 1.25 1.27 1.33 1.45 1.66 1.87 2.07 2.25 2.36 2.45 2.58 2.61 2.63 2.70 2.68 2.59 2.54
0.49 0.51 0.50 0.51 0.56 0.56 0.50 0.46 0.47 0.79 1.05 1.03 1.10 1.13 1.06 1.11 1.13 1.04 0.88 0.82 0.80 0.85 0.93 1.02 1.17 1.30 1.30 1.31 1.44 1.55 1.67 1.82 1.98 2.07 2.15 2.26 2.37 2.51 2.69 2.84 2.77 2.72 2.66 2.56
0.72 0.72 0.69 0.72 0.91 1.03 0.77 0.69 0.90 1.06 0.83 0.88 1.06 1.26 1.28 1.22 1.14 1.06 0.97 0.88 0.80 0.75 0.83 1.00 1.13 1.27 1.40 1.51 1.65 1.77 1.79 1.84 1.98 2.14 2.19 2.23 2.35 2.37 2.44 2.52 2.50 2.48 2.48 2.45
0.82 0.93 1.02 1.06 1.21 1.11 0.94 0.96 0.91 0.97 1.10 1.15 1.25 1.43 1.45 1.31 1.18 1.17 1.10 0.97 0.87 0.85 0.91 1.01 1.13 1.26 1.36 1.52 1.68 1.82 1.90 1.96 2.04 2.11 2.20 2.30 2.34 2.36 2.44 2.55 2.56 2.49 2.42 2.36
0.86 0.76 0.97 1.26 1.40 1.24 1.08 1.05 1.00 1.06 1.24 1.30 1.26 1.26 1.26 1.20 1.13 1.26 1.29 1.14 1.10 1.10 1.10 1.13 1.19 1.26 1.35 1.44 1.59 1.76 1.87 1.91 2.01 2.07 2.11 2.23 2.34 2.43 2.53 2.54 2.45 2.31 2.16 2.08
0.89 0.93 1.10 1.50 1.71 1.64 1.46 1.31 1.21 1.22 1.18 1.25 1.19 1.21 1.18 1.16 1.13 1.21 1.33 1.38 1.32 1.21 1.15 1.18 1.23 1.30 1.35 1.42 1.49 1.69 1.88 1.94 1.95 2.06 2.11 2.09 2.10 2.16 2.24 2.28 2.25 2.12 2.00 1.90
0.98 1.17 1.47 1.85 1.87 1.98 1.85 1.53 1.34 1.39 1.34 1.29 1.25 1.32 1.36 1.30 1.22 1.23 1.36 1.41 1.38 1.28 1.22 1.22 1.23 1.27 1.33 1.44 1.55 1.63 1.86 2.08 2.12 2.09 1.97 1.87 1.77 1.74 1.76 1.76 1.80 1.91 1.81 1.79